YARILO 1

Last updated on Thu Oct 29 2020 00:02:02 GMT+0000 (Coordinated Universal Time)

1 46490U 20068E 20302.62864158 .00001750 00000-0 13232-3 0 9993 2 46490 97.6688 235.8468 0019584 138.1719 222.1003 15.03525453 4526

Satellite not in orbit

YARILO 1